Вернуться в каталог

ARIANE 2 DEB

LostHEO
NORAD 40784·DEBRIS·🇫🇷 France

Запущен Jan 27, 1989 с Guiana Space Centre

Loading…

Ближайшие Пролёты (ближайшие 24 часа)

TLE

УстаревшееSource: Space-Track

Эпоха: Jun 14, 2019, 19:01 UTC

1 40784U 89006CD  19165.79294556  .00368873  00000-0  62352-2 0  9990
2 40784   8.2412  46.4860 4786965 125.5460 288.8866  6.12401229181786

Отслеживайте ARIANE 2 DEB в реальном времени с AllMySat

Download on the App Store